Terminal Aerodrome Forecast
Issued by NWS Duluth, MN

Home | Current Version | Previous Version | Text Only | Print | Product List | Glossary On
Versions: 1 2 3 4 5 6 7 8 9 10 11 12 13 14 15 16 17 18 19 20 21
000
FTUS43 KDLH 211720
TAFDLH
TAF
KDLH 211720Z 2118/2218 31009KT P6SM SCT060
     FM220100 24005KT P6SM SKC
     FM221000 21005KT P6SM SCT150 WS010/22035KT
     FM221330 21007G14KT P6SM SKC
     FM221700 20012G20KT P6SM SKC=

USA.gov is the U.S. government's official web portal to all federal, state and local government web resources and services.